contact:dominique.lefevre@mio.osupytheas.fr, maurice.libes@osupytheas.fr, didier.mallarino@osupytheas.fr
Project:EMSO http://www.emso-fr.org/EMSO-France
Depth: 2436.0 m
Title:EMSO Ligure Ouest : Data MII capteur AQUADOPP
Date,Latitude,Longitude,X_East,Y_North,Z_Up,Amplitude_X,Amplitude_Y,Amplitude_Z,Batterie,SoundSpeed,Heading,Pitch,Roll,Pressure,TIS,Speed,Direction
, degrees North, degrees East, m.s-1, m.s-1,m.s-1, 1, 1, 1, Volt, m.s-1, degree, degree, degree, dbar, degree_C, m.s-1, degree
2019-12-07T00:04:03,42.805,6.029,0.016,0.018,-0.004,98.0,108.0,98.0,13.3,1505.3,323.2,-0.8,1.8,2470.239,13.33,0.024,41.6
2019-12-07T00:07:03,42.805,6.029,-0.017,0.007,-0.036,100.0,109.0,96.0,13.4,1505.3,327.1,-0.7,1.8,2470.25,13.33,0.018,292.4
2019-12-07T00:10:03,42.805,6.029,0.026,-0.005,-0.03,100.0,108.0,96.0,13.4,1505.4,327.9,-0.8,1.8,2470.238,13.34,0.026,100.9
2019-12-07T00:13:03,42.805,6.029,0.069,0.013,0.031,100.0,105.0,98.0,13.4,1505.4,326.1,-0.7,1.8,2470.207,13.34,0.07,79.3
2019-12-07T00:16:03,42.805,6.029,0.03,0.014,-0.004,101.0,105.0,98.0,13.4,1505.4,326.3,-0.7,1.8,2470.193,13.34,0.033,65.0
2019-12-07T00:19:03,42.805,6.029,0.047,-0.008,-0.034,98.0,107.0,101.0,13.4,1505.4,326.9,-0.7,1.8,2470.24,13.34,0.047,99.7
2019-12-07T00:22:03,42.805,6.029,0.031,0.026,0.029,101.0,105.0,100.0,13.3,1505.4,328.0,-0.7,1.8,2470.202,13.34,0.04,50.0
2019-12-07T00:28:03,42.805,6.029,0.042,0.01,-0.006,102.0,107.0,98.0,13.3,1505.3,327.7,-0.7,1.8,2470.224,13.32,0.043,76.6
2019-12-07T00:31:03,42.805,6.029,0.017,0.007,0.039,101.0,107.0,97.0,13.4,1505.3,323.1,-0.8,1.8,2470.203,13.33,0.018,67.6
2019-12-07T00:34:03,42.805,6.029,0.013,0.004,0.034,99.0,106.0,99.0,13.3,1505.3,324.3,-0.7,1.8,2470.239,13.33,0.013,72.9
2019-12-07T00:37:03,42.805,6.029,0.014,0.009,0.024,100.0,106.0,98.0,13.3,1505.3,326.8,-0.7,1.8,2470.262,13.33,0.016,57.3
2019-12-07T00:40:03,42.805,6.029,0.035,0.016,0.014,100.0,105.0,98.0,13.3,1505.3,325.3,-0.7,1.8,2470.209,13.33,0.038,65.4
2019-12-07T00:46:03,42.805,6.029,-0.024,0.02,-0.045,99.0,107.0,98.0,13.4,1505.3,324.3,-0.7,1.8,2470.222,13.32,0.031,309.8
2019-12-07T00:49:03,42.805,6.029,-0.019,-0.02,-0.049,99.0,107.0,99.0,13.3,1505.3,325.2,-0.7,1.8,2470.265,13.32,0.027,223.5
2019-12-07T00:52:03,42.805,6.029,0.011,0.015,-0.026,98.0,106.0,98.0,13.4,1505.3,326.6,-0.7,1.8,2470.234,13.33,0.018,36.3
2019-12-07T00:55:03,42.805,6.029,0.022,0.014,0.012,99.0,106.0,98.0,13.4,1505.3,327.9,-0.7,1.8,2470.239,13.33,0.026,57.5
2019-12-07T00:58:03,42.805,6.029,0.001,0.024,0.003,100.0,107.0,98.0,13.3,1505.3,324.4,-0.7,1.8,2470.246,13.33,0.024,2.4
2019-12-07T01:04:03,42.805,6.029,0.021,-0.011,-0.054,102.0,108.0,99.0,13.4,1505.3,325.1,-0.8,1.8,2470.254,13.31,0.023,117.6
2019-12-07T01:07:03,42.805,6.029,0.017,-0.003,0.01,100.0,106.0,98.0,13.4,1505.3,326.6,-0.7,1.8,2470.263,13.32,0.017,100.0
2019-12-07T01:10:03,42.805,6.029,-0.02,0.018,-0.04,100.0,104.0,97.0,13.4,1505.3,326.9,-0.7,1.8,2470.252,13.32,0.026,312.0
2019-12-07T01:13:03,42.805,6.029,-0.012,0.009,-0.019,99.0,103.0,97.0,13.4,1505.3,327.2,-0.7,1.8,2470.245,13.33,0.015,306.9
2019-12-07T01:16:03,42.805,6.029,-0.008,0.015,-0.035,99.0,105.0,97.0,13.4,1505.3,328.5,-0.7,1.8,2470.259,13.33,0.017,331.9
2019-12-07T01:19:03,42.805,6.029,-0.01,0.005,-0.022,99.0,103.0,99.0,13.4,1505.3,323.5,-0.7,1.8,2470.259,13.33,0.011,296.6
2019-12-07T01:22:03,42.805,6.029,0.013,0.0,-0.023,100.0,105.0,98.0,13.4,1505.3,328.0,-0.7,1.8,2470.248,13.33,0.013,90.0
2019-12-07T01:25:03,42.805,6.029,0.003,0.009,0.002,100.0,106.0,98.0,13.4,1505.3,328.0,-0.7,1.8,2470.229,13.33,0.009,18.4
2019-12-07T01:28:03,42.805,6.029,0.015,0.002,-0.035,100.0,104.0,98.0,13.3,1505.3,326.0,-0.7,1.8,2470.261,13.33,0.015,82.4
2019-12-07T01:31:03,42.805,6.029,-0.027,0.002,-0.01,100.0,103.0,98.0,13.4,1505.3,326.1,-0.8,1.8,2470.247,13.33,0.027,274.2
2019-12-07T01:34:03,42.805,6.029,-0.005,0.0,-0.028,99.0,104.0,97.0,13.3,1505.3,324.3,-0.7,1.8,2470.229,13.33,0.005,270.0
2019-12-07T01:37:03,42.805,6.029,0.009,0.0,-0.031,99.0,105.0,98.0,13.4,1505.3,326.1,-0.7,1.8,2470.256,13.33,0.009,90.0
2019-12-07T01:43:03,42.805,6.029,0.002,0.009,-0.016,98.0,104.0,98.0,13.4,1505.3,324.1,-0.7,1.9,2470.284,13.32,0.009,12.5
2019-12-07T01:46:03,42.805,6.029,0.004,0.007,0.002,101.0,106.0,98.0,13.4,1505.3,326.8,-0.8,1.8,2470.276,13.32,0.008,29.7
2019-12-07T01:49:03,42.805,6.029,0.015,0.005,-0.003,99.0,104.0,98.0,13.4,1505.3,324.5,-0.7,1.9,2470.265,13.33,0.015,71.6
2019-12-07T01:52:03,42.805,6.029,0.021,0.003,-0.024,99.0,104.0,97.0,13.4,1505.3,328.7,-0.7,1.8,2470.271,13.33,0.021,81.9
2019-12-07T01:55:03,42.805,6.029,0.026,-0.001,-0.006,99.0,103.0,97.0,13.4,1505.3,326.6,-0.7,1.8,2470.239,13.33,0.026,92.2
2019-12-07T01:58:03,42.805,6.029,-0.012,0.012,-0.018,99.0,104.0,97.0,13.3,1505.3,328.1,-0.7,1.9,2470.229,13.33,0.016,315.0
2019-12-07T02:04:03,42.805,6.029,0.018,-0.012,-0.032,99.0,110.0,98.0,13.3,1505.3,325.3,-0.8,1.8,2470.297,13.31,0.021,123.7
2019-12-07T02:07:03,42.805,6.029,0.009,-0.005,-0.017,102.0,103.0,97.0,13.4,1505.3,325.4,-0.7,1.8,2470.267,13.32,0.01,119.1
2019-12-07T02:10:03,42.805,6.029,-0.014,0.0,-0.034,98.0,105.0,98.0,13.4,1505.3,323.2,-0.7,1.9,2470.279,13.33,0.014,270.0
2019-12-07T02:13:03,42.805,6.029,0.021,-0.008,-0.003,101.0,104.0,97.0,13.4,1505.3,325.2,-0.7,1.8,2470.256,13.33,0.022,110.9
2019-12-07T02:16:03,42.805,6.029,-0.006,0.002,-0.046,99.0,106.0,97.0,13.4,1505.3,327.2,-0.7,1.8,2470.31,13.33,0.006,288.4
2019-12-07T02:19:03,42.805,6.029,0.022,-0.001,0.0,98.0,108.0,98.0,13.3,1505.3,326.8,-0.7,1.9,2470.276,13.33,0.022,92.6
2019-12-07T02:22:03,42.805,6.029,0.043,0.005,0.002,100.0,105.0,97.0,13.4,1505.3,324.1,-0.7,1.8,2470.251,13.33,0.043,83.4
2019-12-07T02:25:03,42.805,6.029,-0.006,0.011,0.008,99.0,106.0,98.0,13.3,1505.3,326.2,-0.8,1.8,2470.28,13.33,0.012,331.4
2019-12-07T02:28:03,42.805,6.029,-0.01,0.015,-0.029,99.0,105.0,98.0,13.4,1505.4,326.0,-0.7,1.8,2470.28,13.34,0.018,326.3
2019-12-07T02:31:03,42.805,6.029,0.011,0.014,0.016,100.0,105.0,98.0,13.3,1505.4,325.1,-0.7,1.8,2470.286,13.34,0.017,38.2
2019-12-07T02:34:03,42.805,6.029,-0.026,0.002,-0.054,99.0,104.0,99.0,13.4,1505.4,325.0,-0.7,1.8,2470.269,13.34,0.026,274.4
2019-12-07T02:37:03,42.805,6.029,0.018,0.011,-0.007,99.0,105.0,98.0,13.4,1505.4,326.5,-0.7,1.8,2470.253,13.34,0.021,58.6
2019-12-07T02:40:03,42.805,6.029,0.015,0.006,-0.025,99.0,104.0,98.0,13.3,1505.4,324.8,-0.7,1.8,2470.253,13.34,0.016,68.2
2019-12-07T02:43:03,42.805,6.029,0.017,-0.018,-0.004,99.0,105.0,98.0,13.4,1505.4,326.3,-0.7,1.8,2470.293,13.34,0.024,136.6
2019-12-07T02:46:03,42.805,6.029,0.002,-0.023,-0.039,99.0,106.0,98.0,13.4,1505.4,327.7,-0.7,1.8,2470.256,13.34,0.023,175.0
2019-12-07T02:49:03,42.805,6.029,0.022,-0.002,-0.033,98.0,106.0,97.0,13.3,1505.4,326.7,-0.7,1.8,2470.249,13.34,0.022,95.2
2019-12-07T02:52:03,42.805,6.029,-0.038,0.013,-0.072,99.0,106.0,98.0,13.4,1505.4,324.7,-0.7,1.8,2470.3,13.34,0.04,288.9
2019-12-07T02:55:03,42.805,6.029,0.012,0.014,-0.026,100.0,106.0,98.0,13.4,1505.3,326.8,-0.7,1.9,2470.266,13.33,0.018,40.6
2019-12-07T02:58:03,42.805,6.029,0.006,-0.014,-0.041,99.0,104.0,99.0,13.4,1505.3,323.8,-0.7,1.8,2470.262,13.33,0.015,156.8
2019-12-07T03:04:03,42.805,6.029,0.011,-0.018,-0.03,98.0,104.0,98.0,13.3,1505.3,326.1,-0.7,1.8,2470.318,13.31,0.021,148.6
2019-12-07T03:07:03,42.805,6.029,0.021,-0.01,-0.031,99.0,104.0,98.0,13.4,1505.3,325.0,-0.7,1.8,2470.356,13.32,0.023,115.5
2019-12-07T03:10:03,42.805,6.029,0.021,0.006,-0.002,98.0,107.0,96.0,13.4,1505.3,324.9,-0.7,1.8,2470.315,13.32,0.021,74.1
2019-12-07T03:13:03,42.805,6.029,0.003,-0.014,-0.029,99.0,106.0,98.0,13.3,1505.3,325.8,-0.7,1.8,2470.315,13.33,0.014,167.9
2019-12-07T03:16:03,42.805,6.029,0.002,-0.011,-0.034,101.0,105.0,97.0,13.4,1505.3,324.9,-0.7,1.8,2470.273,13.33,0.011,169.7
2019-12-07T03:19:03,42.805,6.029,-0.002,0.0,-0.025,100.0,107.0,98.0,13.4,1505.3,324.7,-0.7,1.8,2470.264,13.33,0.002,270.0
2019-12-07T03:22:03,42.805,6.029,0.006,0.017,-0.038,99.0,106.0,98.0,13.3,1505.3,323.7,-0.7,1.8,2470.244,13.33,0.018,19.4
2019-12-07T03:25:03,42.805,6.029,-0.002,-0.017,-0.027,100.0,105.0,98.0,13.3,1505.3,324.0,-0.7,1.8,2470.289,13.33,0.017,186.7
2019-12-07T03:28:03,42.805,6.029,-0.009,-0.008,-0.053,99.0,104.0,98.0,13.3,1505.3,326.8,-0.7,1.9,2470.256,13.33,0.012,228.4
2019-12-07T03:31:03,42.805,6.029,0.0,0.005,-0.018,100.0,105.0,97.0,13.4,1505.3,326.8,-0.8,1.8,2470.273,13.33,0.005,0.0
2019-12-07T03:34:03,42.805,6.029,0.01,-0.006,-0.037,100.0,107.0,99.0,13.4,1505.3,323.3,-0.7,1.8,2470.324,13.33,0.011,121.0
2019-12-07T03:37:03,42.805,6.029,0.005,0.005,-0.038,101.0,105.0,98.0,13.3,1505.3,326.5,-0.7,1.8,2470.274,13.33,0.007,45.0
2019-12-07T03:43:03,42.805,6.029,-0.034,-0.002,-0.092,100.0,105.0,98.0,13.4,1505.3,327.9,-0.7,1.8,2470.294,13.31,0.034,266.6
2019-12-07T03:46:03,42.805,6.029,0.0,-0.007,-0.05,101.0,106.0,98.0,13.4,1505.3,324.3,-0.7,1.8,2470.318,13.32,0.007,180.0
2019-12-07T03:49:03,42.805,6.029,0.001,-0.01,-0.031,99.0,105.0,98.0,13.4,1505.3,326.4,-0.7,1.8,2470.34,13.33,0.01,174.3
2019-12-07T03:52:03,42.805,6.029,0.011,-0.003,-0.034,100.0,104.0,99.0,13.4,1505.3,325.3,-0.7,1.8,2470.287,13.33,0.011,105.3
2019-12-07T03:55:03,42.805,6.029,0.031,0.012,-0.018,99.0,104.0,98.0,13.4,1505.3,326.7,-0.8,1.8,2470.3,13.33,0.033,68.8
2019-12-07T03:58:03,42.805,6.029,0.039,-0.016,0.0,100.0,104.0,98.0,13.4,1505.3,323.2,-0.7,1.8,2470.275,13.33,0.042,112.3
2019-12-07T04:04:03,42.805,6.029,0.013,-0.003,-0.024,100.0,104.0,98.0,13.4,1505.3,326.5,-0.7,1.8,2470.323,13.31,0.013,103.0
2019-12-07T04:07:03,42.805,6.029,0.038,-0.001,-0.01,100.0,104.0,98.0,13.4,1505.3,323.3,-0.8,1.8,2470.285,13.32,0.038,91.5
2019-12-07T04:10:03,42.805,6.029,0.002,-0.014,-0.028,99.0,104.0,99.0,13.3,1505.3,323.4,-0.7,1.8,2470.289,13.32,0.014,171.9
2019-12-07T04:13:03,42.805,6.029,0.014,0.002,0.001,99.0,102.0,99.0,13.3,1505.3,323.0,-0.8,1.8,2470.27,13.32,0.014,81.9
2019-12-07T04:16:03,42.805,6.029,0.019,0.001,-0.018,98.0,104.0,98.0,13.4,1505.3,324.0,-0.7,1.8,2470.326,13.33,0.019,87.0
2019-12-07T04:19:03,42.805,6.029,-0.001,-0.015,-0.056,99.0,104.0,98.0,13.3,1505.3,327.9,-0.8,1.8,2470.298,13.33,0.015,183.8
2019-12-07T04:22:03,42.805,6.029,-0.004,0.007,-0.036,99.0,104.0,98.0,13.4,1505.3,325.7,-0.7,1.8,2470.262,13.33,0.008,330.3
2019-12-07T04:25:03,42.805,6.029,-0.003,0.001,-0.043,98.0,103.0,99.0,13.4,1505.3,324.6,-0.7,1.8,2470.274,13.33,0.003,288.4
2019-12-07T04:28:03,42.805,6.029,-0.008,-0.007,-0.043,99.0,103.0,96.0,13.4,1505.3,325.1,-0.7,1.9,2470.31,13.33,0.01,228.8
2019-12-07T04:31:03,42.805,6.029,-0.007,-0.01,-0.075,100.0,103.0,97.0,13.4,1505.3,324.6,-0.7,1.9,2470.277,13.33,0.012,215.0
2019-12-07T04:34:03,42.805,6.029,0.006,-0.001,-0.045,99.0,103.0,98.0,13.4,1505.3,325.4,-0.7,1.9,2470.266,13.33,0.006,99.5
2019-12-07T04:37:03,42.805,6.029,-0.017,-0.041,-0.081,98.0,103.0,97.0,13.4,1505.3,326.2,-0.7,1.8,2470.303,13.33,0.044,202.5
2019-12-07T04:40:03,42.805,6.029,-0.031,-0.011,-0.051,99.0,102.0,98.0,13.3,1505.3,323.9,-0.8,1.8,2470.237,13.33,0.032,250.5
2019-12-07T04:43:03,42.805,6.029,-0.026,-0.003,-0.07,99.0,103.0,98.0,13.4,1505.3,327.8,-0.7,1.8,2470.265,13.33,0.026,263.4
2019-12-07T04:46:03,42.805,6.029,0.006,0.023,-0.028,99.0,103.0,98.0,13.4,1505.3,326.9,-0.7,1.8,2470.258,13.33,0.023,14.6
2019-12-07T04:49:03,42.805,6.029,0.007,-0.011,-0.016,101.0,102.0,98.0,13.4,1505.3,328.3,-0.7,1.8,2470.268,13.33,0.013,147.5
2019-12-07T04:52:03,42.805,6.029,0.017,0.002,0.013,98.0,102.0,98.0,13.3,1505.3,326.9,-0.7,1.8,2470.276,13.33,0.017,83.3
2019-12-07T04:55:03,42.805,6.029,0.032,0.004,0.02,100.0,103.0,98.0,13.4,1505.3,323.9,-0.7,1.9,2470.257,13.33,0.032,82.9
2019-12-07T04:58:03,42.805,6.029,0.024,-0.003,0.01,99.0,103.0,98.0,13.4,1505.3,325.9,-0.7,1.8,2470.277,13.33,0.024,97.1
2019-12-07T05:04:03,42.805,6.029,0.022,-0.019,0.012,99.0,103.0,98.0,13.4,1505.3,324.0,-0.7,1.8,2470.319,13.31,0.029,130.8
2019-12-07T05:07:03,42.805,6.029,0.046,-0.002,-0.003,99.0,104.0,97.0,13.3,1505.3,325.2,-0.7,1.8,2470.285,13.32,0.046,92.5
2019-12-07T05:10:03,42.805,6.029,0.033,0.0,0.032,101.0,103.0,98.0,13.4,1505.3,323.7,-0.7,1.9,2470.262,13.32,0.033,90.0
2019-12-07T05:13:03,42.805,6.029,0.028,0.005,-0.006,99.0,104.0,98.0,13.4,1505.3,326.5,-0.7,1.8,2470.27,13.32,0.028,79.9
2019-12-07T05:16:03,42.805,6.029,0.014,0.009,-0.016,100.0,105.0,97.0,13.4,1505.3,325.3,-0.7,1.8,2470.257,13.33,0.016,57.3
2019-12-07T05:19:03,42.805,6.029,0.002,-0.014,-0.013,99.0,105.0,98.0,13.4,1505.3,327.5,-0.7,1.8,2470.31,13.33,0.014,171.9
2019-12-07T05:22:03,42.805,6.029,0.043,-0.008,-0.009,103.0,103.0,99.0,13.4,1505.3,325.1,-0.7,1.9,2470.296,13.33,0.043,100.5
2019-12-07T05:25:03,42.805,6.029,0.01,-0.001,-0.009,99.0,106.0,97.0,13.4,1505.3,323.3,-0.7,1.9,2470.285,13.33,0.01,95.7
2019-12-07T05:28:03,42.805,6.029,0.001,0.009,-0.009,100.0,106.0,98.0,13.3,1505.3,325.1,-0.7,1.9,2470.268,13.33,0.009,6.3
2019-12-07T05:31:03,42.805,6.029,0.014,-0.014,-0.051,99.0,104.0,99.0,13.3,1505.3,327.6,-0.7,1.8,2470.229,13.33,0.019,135.0
2019-12-07T05:34:03,42.805,6.029,0.001,-0.022,-0.016,100.0,105.0,98.0,13.4,1505.3,324.7,-0.7,1.8,2470.247,13.33,0.022,177.4
2019-12-07T05:37:03,42.805,6.029,0.007,-0.006,-0.001,100.0,105.0,99.0,13.4,1505.3,328.5,-0.7,1.8,2470.269,13.33,0.009,130.6
2019-12-07T05:40:03,42.805,6.029,0.01,0.001,0.007,99.0,104.0,99.0,13.3,1505.3,323.3,-0.7,1.8,2470.263,13.33,0.01,84.3
2019-12-07T05:43:03,42.805,6.029,0.031,0.007,-0.004,99.0,104.0,98.0,13.4,1505.3,327.0,-0.7,1.8,2470.249,13.33,0.031,77.3
2019-12-07T05:46:03,42.805,6.029,0.006,0.008,-0.032,99.0,105.0,97.0,13.4,1505.3,327.2,-0.7,1.8,2470.21,13.33,0.01,36.9
2019-12-07T05:49:03,42.805,6.029,0.019,0.0,-0.018,99.0,105.0,98.0,13.4,1505.3,326.2,-0.7,1.9,2470.194,13.33,0.019,90.0
2019-12-07T05:52:03,42.805,6.029,0.013,0.0,0.012,99.0,105.0,98.0,13.3,1505.3,324.5,-0.7,1.8,2470.253,13.33,0.013,90.0
2019-12-07T05:55:03,42.805,6.029,0.003,0.011,-0.035,99.0,104.0,98.0,13.4,1505.3,327.8,-0.7,1.8,2470.218,13.33,0.011,15.3
2019-12-07T05:58:03,42.805,6.029,0.025,-0.001,-0.022,100.0,104.0,98.0,13.4,1505.3,326.2,-0.7,1.8,2470.278,13.33,0.025,92.3
2019-12-07T06:04:03,42.805,6.029,0.023,0.03,0.011,99.0,105.0,98.0,13.4,1505.3,328.4,-0.8,1.8,2470.283,13.31,0.037,37.5
2019-12-07T06:07:03,42.805,6.029,-0.011,0.003,-0.033,99.0,105.0,100.0,13.4,1505.3,324.9,-0.7,1.8,2470.299,13.32,0.011,285.3
2019-12-07T06:10:03,42.805,6.029,0.016,-0.003,-0.008,98.0,104.0,99.0,13.4,1505.3,327.2,-0.7,1.8,2470.26,13.32,0.016,100.6
2019-12-07T06:13:03,42.805,6.029,0.005,0.002,-0.038,98.0,104.0,98.0,13.4,1505.3,327.9,-0.7,1.8,2470.254,13.33,0.005,68.2
2019-12-07T06:16:03,42.805,6.029,0.002,0.002,-0.027,100.0,105.0,98.0,13.4,1505.3,324.2,-0.7,1.8,2470.271,13.33,0.002,45.0
2019-12-07T06:19:03,42.805,6.029,0.003,0.002,-0.005,99.0,103.0,98.0,13.4,1505.3,326.1,-0.7,1.8,2470.271,13.33,0.003,56.3
2019-12-07T06:22:02,42.805,6.029,0.001,-0.01,-0.049,98.0,104.0,99.0,13.3,1505.3,325.4,-0.7,1.8,2470.228,13.33,0.01,174.3
2019-12-07T06:25:03,42.805,6.029,0.007,0.0,-0.019,101.0,103.0,99.0,13.4,1505.3,322.9,-0.7,1.8,2470.275,13.33,0.007,90.0
2019-12-07T06:28:03,42.805,6.029,0.003,0.007,-0.008,100.0,105.0,98.0,13.4,1505.3,326.6,-0.7,1.8,2470.262,13.33,0.007,23.2
2019-12-07T06:31:03,42.805,6.029,0.01,-0.02,-0.029,101.0,104.0,98.0,13.4,1505.3,325.9,-0.7,1.8,2470.256,13.33,0.022,153.4
2019-12-07T06:34:03,42.805,6.029,0.008,-0.007,-0.031,100.0,104.0,97.0,13.3,1505.3,323.7,-0.7,1.9,2470.271,13.33,0.01,131.2
2019-12-07T06:37:03,42.805,6.029,0.016,-0.006,-0.044,99.0,104.0,98.0,13.4,1505.3,325.5,-0.7,1.9,2470.281,13.33,0.017,110.6
2019-12-07T06:40:03,42.805,6.029,0.014,-0.015,-0.027,99.0,105.0,97.0,13.4,1505.3,323.8,-0.7,1.8,2470.255,13.33,0.02,137.0
2019-12-07T06:43:03,42.805,6.029,0.013,-0.002,-0.027,99.0,104.0,98.0,13.3,1505.3,324.5,-0.7,1.8,2470.234,13.33,0.013,98.7
2019-12-07T06:46:03,42.805,6.029,0.015,0.015,-0.039,100.0,103.0,98.0,13.4,1505.3,323.3,-0.7,1.8,2470.232,13.33,0.021,45.0
2019-12-07T06:49:03,42.805,6.029,-0.004,-0.006,0.007,99.0,104.0,98.0,13.3,1505.3,327.0,-0.7,1.8,2470.186,13.33,0.007,213.7
2019-12-07T06:52:03,42.805,6.029,0.015,-0.021,-0.04,100.0,105.0,97.0,13.4,1505.3,325.6,-0.7,1.8,2470.208,13.33,0.025,144.5
2019-12-07T06:55:03,42.805,6.029,-0.018,-0.002,-0.048,100.0,104.0,98.0,13.4,1505.3,327.7,-0.7,1.8,2470.233,13.33,0.018,263.7
2019-12-07T06:58:03,42.805,6.029,0.023,-0.007,-0.044,101.0,103.0,97.0,13.4,1505.3,326.2,-0.7,1.8,2470.228,13.33,0.024,106.9
2019-12-07T07:04:03,42.805,6.029,-0.012,0.006,-0.066,99.0,104.0,98.0,13.4,1505.3,323.5,-0.7,1.8,2470.229,13.31,0.013,296.6
2019-12-07T07:07:03,42.805,6.029,0.0,0.035,-0.02,99.0,104.0,99.0,13.4,1505.3,327.0,-0.7,1.8,2470.258,13.32,0.035,0.0
2019-12-07T07:10:03,42.805,6.029,-0.021,-0.006,-0.034,99.0,105.0,98.0,13.3,1505.3,324.3,-0.7,1.8,2470.253,13.33,0.021,254.1
2019-12-07T07:13:03,42.805,6.029,0.012,0.0,-0.026,99.0,104.0,99.0,13.4,1505.3,323.4,-0.7,1.8,2470.201,13.33,0.012,90.0
2019-12-07T07:16:03,42.805,6.029,0.033,-0.013,-0.012,101.0,104.0,99.0,13.4,1505.4,324.1,-0.7,1.8,2470.252,13.34,0.035,111.5
2019-12-07T07:19:03,42.805,6.029,-0.014,0.002,-0.025,102.0,104.0,97.0,13.3,1505.4,324.5,-0.7,1.8,2470.245,13.34,0.014,278.1
2019-12-07T07:22:03,42.805,6.029,0.012,-0.004,0.042,100.0,104.0,99.0,13.4,1505.4,323.7,-0.7,1.8,2470.225,13.34,0.012,108.4
2019-12-07T07:25:03,42.805,6.029,-0.022,0.0,-0.022,101.0,103.0,98.0,13.3,1505.4,325.1,-0.7,1.8,2470.239,13.34,0.022,270.0
2019-12-07T07:28:03,42.805,6.029,-0.012,-0.008,-0.063,99.0,103.0,99.0,13.4,1505.4,328.5,-0.7,1.8,2470.239,13.34,0.014,236.3
2019-12-07T07:31:03,42.805,6.029,-0.06,-0.01,-0.064,100.0,103.0,98.0,13.3,1505.4,325.9,-0.7,1.8,2470.221,13.34,0.06,260.5
2019-12-07T07:34:03,42.805,6.029,-0.041,-0.001,-0.049,99.0,104.0,99.0,13.4,1505.4,325.0,-0.7,1.8,2470.245,13.34,0.041,268.6
2019-12-07T07:37:03,42.805,6.029,-0.041,-0.002,-0.06,100.0,105.0,97.0,13.4,1505.4,327.8,-0.7,1.8,2470.21,13.34,0.041,267.2
2019-12-07T07:40:03,42.805,6.029,-0.019,-0.011,-0.069,99.0,104.0,98.0,13.3,1505.4,323.9,-0.7,1.9,2470.229,13.34,0.021,239.9
2019-12-07T07:43:03,42.805,6.029,0.021,0.01,-0.013,100.0,104.0,99.0,13.4,1505.4,328.3,-0.7,1.8,2470.202,13.34,0.023,64.5
2019-12-07T07:46:03,42.805,6.029,0.015,0.001,-0.009,100.0,102.0,99.0,13.3,1505.4,324.6,-0.7,1.8,2470.172,13.34,0.015,86.2
2019-12-07T07:49:03,42.805,6.029,-0.005,-0.002,-0.031,101.0,102.0,97.0,13.4,1505.4,326.6,-0.7,1.8,2470.184,13.34,0.005,248.2
2019-12-07T07:52:03,42.805,6.029,0.018,0.017,-0.019,99.0,104.0,97.0,13.3,1505.4,325.0,-0.7,1.8,2470.253,13.34,0.024,46.6
2019-12-07T07:55:03,42.805,6.029,0.021,0.015,0.002,100.0,102.0,96.0,13.4,1505.4,327.8,-0.7,1.8,2470.225,13.34,0.025,54.5
2019-12-07T07:58:03,42.805,6.029,-0.007,0.011,-0.063,99.0,102.0,97.0,13.3,1505.4,325.1,-0.7,1.8,2470.201,13.34,0.013,327.5
2019-12-07T08:04:03,42.805,6.029,-0.001,-0.013,-0.038,99.0,104.0,97.0,13.3,1505.3,326.5,-0.7,1.8,2470.214,13.32,0.013,184.4
2019-12-07T08:07:03,42.805,6.029,-0.003,-0.007,-0.048,97.0,104.0,98.0,13.3,1505.3,324.8,-0.7,1.9,2470.224,13.33,0.007,203.2
2019-12-07T08:10:03,42.805,6.029,0.041,0.004,-0.025,99.0,104.0,97.0,13.4,1505.3,324.4,-0.7,1.9,2470.242,13.33,0.041,84.4
2019-12-07T08:13:03,42.805,6.029,0.018,0.017,0.019,98.0,105.0,98.0,13.3,1505.4,327.6,-0.7,1.9,2470.295,13.34,0.024,46.6
2019-12-07T08:16:03,42.805,6.029,0.0,0.004,-0.029,102.0,103.0,98.0,13.3,1505.4,324.4,-0.7,1.8,2470.222,13.34,0.004,0.0
2019-12-07T08:19:03,42.805,6.029,-0.008,0.004,-0.018,100.0,106.0,97.0,13.3,1505.4,327.7,-0.7,1.8,2470.282,13.34,0.008,296.6
2019-12-07T08:22:03,42.805,6.029,-0.05,0.002,-0.076,99.0,105.0,98.0,13.3,1505.4,324.7,-0.7,1.8,2470.207,13.34,0.05,272.3
2019-12-07T08:25:03,42.805,6.029,0.062,0.001,-0.013,98.0,103.0,99.0,13.4,1505.4,327.8,-0.7,1.8,2470.217,13.34,0.062,89.1
2019-12-07T08:28:03,42.805,6.029,0.046,0.016,-0.008,101.0,103.0,99.0,13.4,1505.4,323.2,-0.7,1.8,2470.227,13.34,0.048,70.8
2019-12-07T08:31:03,42.805,6.029,0.024,0.007,-0.038,100.0,103.0,98.0,13.3,1505.4,326.2,-0.7,1.8,2470.203,13.34,0.025,73.7
2019-12-07T08:34:03,42.805,6.029,0.056,-0.002,-0.01,99.0,104.0,96.0,13.3,1505.4,328.2,-0.7,1.8,2470.244,13.35,0.056,92.0
2019-12-07T08:37:03,42.805,6.029,0.028,-0.002,0.028,99.0,103.0,98.0,13.4,1505.4,324.4,-0.7,1.8,2470.205,13.35,0.028,94.1
2019-12-07T08:40:03,42.805,6.029,-0.016,0.018,-0.038,98.0,104.0,98.0,13.3,1505.4,324.9,-0.7,1.8,2470.223,13.35,0.024,318.4
2019-12-07T08:43:03,42.805,6.029,0.038,0.013,0.048,98.0,103.0,97.0,13.3,1505.4,326.9,-0.7,1.8,2470.198,13.35,0.04,71.1
2019-12-07T08:46:03,42.805,6.029,0.02,0.006,-0.001,98.0,102.0,99.0,13.4,1505.4,327.8,-0.7,1.8,2470.214,13.35,0.02,73.3
2019-12-07T08:49:03,42.805,6.029,0.029,0.027,-0.017,98.0,103.0,96.0,13.3,1505.4,326.4,-0.7,1.8,2470.164,13.35,0.039,47.0
2019-12-07T08:52:03,42.805,6.029,-0.016,0.002,-0.005,97.0,104.0,97.0,13.4,1505.4,326.9,-0.7,1.9,2470.181,13.35,0.016,277.1
2019-12-07T08:55:03,42.805,6.029,0.008,-0.011,0.005,99.0,104.0,98.0,13.4,1505.4,326.4,-0.7,1.8,2470.168,13.35,0.013,144.0
2019-12-07T08:58:03,42.805,6.029,-0.013,0.017,-0.035,99.0,103.0,97.0,13.3,1505.4,328.0,-0.7,1.8,2470.227,13.35,0.021,322.6
2019-12-07T09:04:03,42.805,6.029,0.007,0.023,-0.011,100.0,104.0,98.0,13.4,1505.3,324.4,-0.7,1.9,2470.226,13.33,0.024,16.9
2019-12-07T09:07:03,42.805,6.029,0.037,0.013,-0.005,99.0,104.0,98.0,13.3,1505.4,328.3,-0.7,1.8,2470.22,13.34,0.039,70.6
2019-12-07T09:10:03,42.805,6.029,0.002,-0.008,0.0,100.0,104.0,100.0,13.3,1505.4,326.0,-0.7,1.8,2470.218,13.34,0.008,166.0
2019-12-07T09:13:03,42.805,6.029,0.052,0.02,0.047,97.0,103.0,98.0,13.3,1505.4,323.0,-0.7,1.8,2470.231,13.34,0.055,69.0
2019-12-07T09:16:03,42.805,6.029,0.018,0.004,0.001,100.0,103.0,97.0,13.4,1505.4,327.8,-0.7,1.8,2470.207,13.34,0.018,77.5
2019-12-07T09:19:03,42.805,6.029,0.015,0.02,0.02,99.0,103.0,98.0,13.4,1505.4,325.3,-0.7,1.9,2470.239,13.34,0.025,36.9
2019-12-07T09:22:03,42.805,6.029,0.0,-0.008,-0.044,102.0,103.0,98.0,13.4,1505.4,328.4,-0.7,1.8,2470.202,13.34,0.008,180.0
2019-12-07T09:25:03,42.805,6.029,-0.011,0.0,-0.079,99.0,104.0,98.0,13.4,1505.4,325.6,-0.7,1.8,2470.232,13.34,0.011,270.0
2019-12-07T09:28:03,42.805,6.029,-0.038,-0.005,-0.061,101.0,104.0,98.0,13.4,1505.4,328.6,-0.7,1.9,2470.202,13.34,0.038,262.5
2019-12-07T09:31:03,42.805,6.029,0.0,0.015,-0.027,98.0,104.0,97.0,13.4,1505.4,325.4,-0.7,1.9,2470.224,13.34,0.015,0.0
2019-12-07T09:34:03,42.805,6.029,0.0,0.006,-0.013,99.0,103.0,97.0,13.4,1505.4,327.9,-0.7,1.8,2470.213,13.34,0.006,0.0
2019-12-07T09:37:03,42.805,6.029,-0.024,-0.002,-0.081,99.0,105.0,97.0,13.3,1505.4,326.7,-0.7,1.8,2470.209,13.34,0.024,265.2
2019-12-07T09:40:03,42.805,6.029,0.001,-0.008,-0.049,98.0,104.0,98.0,13.4,1505.4,327.9,-0.7,1.8,2470.174,13.34,0.008,172.9
2019-12-07T09:46:03,42.805,6.029,0.026,0.022,0.0,99.0,105.0,98.0,13.3,1505.3,327.3,-0.8,1.8,2470.241,13.32,0.034,49.8
2019-12-07T09:49:03,42.805,6.029,0.022,-0.003,-0.031,100.0,102.0,98.0,13.3,1505.3,324.7,-0.7,1.8,2470.15,13.32,0.022,97.8
2019-12-07T09:52:03,42.805,6.029,0.004,0.002,-0.031,98.0,104.0,98.0,13.4,1505.3,326.3,-0.7,1.8,2470.215,13.33,0.004,63.4
2019-12-07T09:55:03,42.805,6.029,0.024,-0.012,-0.014,100.0,105.0,98.0,13.4,1505.3,323.7,-0.7,1.8,2470.233,13.33,0.026,116.6
2019-12-07T09:58:03,42.805,6.029,-0.003,0.011,-0.013,97.0,104.0,97.0,13.3,1505.3,327.3,-0.7,1.9,2470.228,13.33,0.011,344.7
2019-12-07T10:04:03,42.805,6.029,-0.023,-0.013,-0.051,102.0,105.0,98.0,13.3,1505.3,324.7,-0.7,1.9,2470.248,13.31,0.026,240.5
2019-12-07T10:07:03,42.805,6.029,0.01,0.018,-0.002,99.0,104.0,98.0,13.4,1505.3,325.4,-0.8,1.8,2470.202,13.32,0.02,29.1
2019-12-07T10:10:03,42.805,6.029,0.015,-0.005,-0.039,99.0,103.0,97.0,13.4,1505.3,326.7,-0.7,1.8,2470.231,13.32,0.015,108.4
2019-12-07T10:13:03,42.805,6.029,-0.012,0.0,-0.042,99.0,103.0,98.0,13.4,1505.3,327.0,-0.7,1.8,2470.261,13.33,0.012,270.0
2019-12-07T10:16:03,42.805,6.029,0.016,0.005,-0.016,98.0,104.0,98.0,13.4,1505.3,325.4,-0.7,1.9,2470.239,13.33,0.016,72.6
2019-12-07T10:19:03,42.805,6.029,0.0,0.013,-0.038,100.0,102.0,98.0,13.4,1505.3,326.8,-0.8,1.8,2470.234,13.33,0.013,0.0
2019-12-07T10:22:03,42.805,6.029,-0.007,-0.001,-0.038,99.0,103.0,97.0,13.3,1505.3,325.4,-0.7,1.9,2470.195,13.33,0.007,261.9
2019-12-07T10:25:03,42.805,6.029,-0.017,-0.015,-0.049,100.0,103.0,99.0,13.3,1505.3,323.6,-0.7,1.9,2470.212,13.33,0.022,228.6